Weather in Larvik

Norway     59°02′53″N   10°02′17″E
В апреле 2022 года жителям России запретили посещать сайт meteo.paraplan.net по решению Генеральной прокуратуры. Аудитория сайта уменьшилась в 10 раз. Владельцы сайта не видят смысла в поддержке погодного сервера в таких условиях. Сайт будет закрыт в октябре.
temp.,
°C
wind,
m/s
gust,
m/s
humid.,
%
clouds,
%
prec.,
mm/h
press.,
hPa
HPBL,
m
25 september, sun
sun2523:00+10n57825 0.0 1014271
02:00+9n57825 0.0 1014197
05:00+9n45835 0.0 1013156
08:00+9n34825 0.0 1012143
11:00+11w11695 0.0 1011288
14:00+12ssw557296 0.0 1008495
17:00+12ssw897899 0.0 1006731
20:00+13sw8976100 0.1 1003724
26 september, mon
mon2623:00+11wsw81172100 0.1 1001998
02:00+10ssw91186100 2.5 998912
05:00+11s111388100 3.3 995994
08:00+12s111390100 6.3 992928
11:00+12s121491100 4.1 992904
14:00+12s111393100 8.7 990816
17:00+13s9108882 6.4 989701
20:00+13ssw787749 6.8 990573
27 september, tue
tue2723:00+12sw787291 0.0 991630
02:00+11s4582100 0.9 992485
05:00+10w2286100 1.5 992207
08:00+10nnw2388100 4.1 993223
11:00+10nnw4584100 1.0 994261
14:00+11ese101390100 5.1 9951002
17:00+12e91286100 3.4 996871
20:00+12e91287100 5.6 997832
28 september, wed
wed2823:00+13ese101284100 1.9 998760
02:00+12e101387100 4.4 999887
05:00+13ene111387100 2.4 999892
08:00+13ene111488100 4.2 10001016
11:00+12ene131783100 1.3 10011085
14:00+13ne121675100 1.4 10021328
17:00+13ne12156956 0.1 10011289
20:00+12ne11156859 0.1 10021325
29 september, thu
thu2923:00+10ne11147635 0.0 10031001
02:00+9nne111377100 0.1 10031137
05:00+9nne101476100 0.1 10021184
08:00+9nne11147676 0.2 10021212
11:00+10nne10137499 0.4 10011234
14:00+8n101588100 2.0 1000963
17:00+10nne111584100 0.8 1001900
20:00+9nne91285100 0.8 1002908